Content
SEND FEEDBACK

Daily
Averages
Monthly
Summary
United States of America

LAKE BRONSON, MINNESOTA


Home > North America > United States > Minnesota
Elevation: 1020 feet     Latitude: 48 58N     Longitude: 096 26W

WEATHER
 
SELECT A DAY
Number of Records: 446,427;   Date Range: 1/1/95 - 8/12/14
 
SHARE

PRINT THIS DATA

[ ← Previous Day ]
WEATHER ALMANAC - FEBRUARY 1, 2013
[ Next Day → ]
[ °C ]   °F
Weather ElementAverageHighLow
Temperature-13.7 °F-4 °F (4:54 pm)-23.8 °F (2:34 am)
Dewpoint-19.3 °F-9.4 °F (5:14 pm)-31 °F (5:34 am)
Humidity76 %84 % (8:14 pm)69 % (1:14 am)
Barometer30.12 in30.23 in (12:34 am)30.04 in (2:54 pm)
Wind Speed5.9 mph13.8 mph (1:54 pm)
Weather ElementAverage
Visibility9 mi
Wind DirectionESE (112.8 °)

Weather ElementTotal
Precipitation---
Heating Degree Days78.9 (Base 65)
Averaged from 69 records on February 1, 2013
WEATHER CONDITIONS BREAKOUT
WIND DIRECTION BREAKOUT
WEATHER BY HOUR - FEBRUARY 1, 2013
[ °C ]   °F
Local TimeTemperatureDewpointHumidityBarometerVisibilityWind DirectionWind SpeedGust SpeedPrecipitationEventsConditions
12:34 AM-22.0 °F-27.4 °F76 %30.23 in10.0 miCalmClear
1:14 AM-20.2 °F-27.4 °F69 %30.23 in10.0 miWSW (250°)3.5 mphClear
1:34 AM-22.0 °F-27.4 °F76 %30.22 in10.0 miCalmClear
1:54 AM-22.0 °F-29.2 °F69 %30.22 in10.0 miCalmClear
2:14 AM-22.0 °F-29.2 °F69 %30.21 in10.0 miCalmClear
2:34 AM-23.8 °F-29.2 °F76 %30.21 in10.0 miSouth (170°)3.5 mphClear
2:53 AM-23.8 °F-29.2 °F76 %30.22 in10.0 miCalmClear
3:14 AM-23.8 °F-29.2 °F76 %30.21 in10.0 miSouth (190°)3.5 mphClear
3:34 AM-23.8 °F-29.2 °F76 %30.20 in10.0 miCalmClear
3:53 AM-23.8 °F-29.2 °F76 %30.20 in10.0 miSouth (180°)3.5 mphClear
4:14 AM-23.8 °F-29.2 °F76 %30.19 in10.0 miSouth (170°)3.5 mphClear
4:34 AM-23.8 °F-29.2 °F76 %30.19 in10.0 miSouth (180°)4.6 mphClear
4:53 AM-23.8 °F-29.2 °F76 %30.19 in10.0 miSouth (170°)4.6 mphClear
5:14 AM-23.8 °F-29.2 °F76 %30.19 in10.0 miSouth (190°)3.5 mphClear
5:34 AM-23.8 °F-31.0 °F69 %30.18 in10.0 miCalmClear
6:14 AM-23.8 °F-29.2 °F76 %30.17 in10.0 miSSE (160°)5.8 mphClear
6:34 AM-23.8 °F-29.2 °F76 %30.16 in10.0 miSouth (170°)6.9 mphClear
6:53 AM-23.8 °F-29.2 °F76 %30.16 in10.0 miSSE (160°)6.9 mphClear
7:14 AM-23.8 °F-29.2 °F76 %30.15 in10.0 miSSE (150°)8.1 mphClear
7:34 AM-23.8 °F-27.4 °F83 %30.15 in10.0 miSSE (150°)8.1 mphClear
7:54 AM-22.0 °F-27.4 °F76 %30.14 in10.0 miSE (140°)8.1 mphClear
8:14 AM-22.0 °F-27.4 °F76 %30.14 in10.0 miSSE (150°)8.1 mphClear
8:34 AM-20.2 °F-25.6 °F76 %30.12 in10.0 miSSE (160°)10.4 mphClear
8:54 AM-20.2 °F-25.6 °F76 %30.12 in10.0 miSSE (160°)10.4 mphClear
9:14 AM-18.4 °F-25.6 °F70 %30.12 in10.0 miSSE (160°)10.4 mphClear
9:34 AM-18.4 °F-23.8 °F76 %30.12 in10.0 miSSE (160°)10.4 mphClear
9:54 AM-16.6 °F-23.8 °F70 %30.12 in10.0 miSSE (160°)10.4 mphClear
10:14 AM-16.6 °F-22.0 °F76 %30.12 in10.0 miSouth (170°)10.4 mphClear
10:34 AM-14.8 °F-22.0 °F70 %30.12 in10.0 miSouth (170°)10.4 mphClear
10:54 AM-14.8 °F-20.2 °F77 %30.11 in10.0 miSouth (170°)10.4 mphClear
11:14 AM-13.0 °F-20.2 °F70 %30.10 in10.0 miSSE (160°)10.4 mphClear
11:34 AM-13.0 °F-18.4 °F77 %30.08 in10.0 miSSE (150°)11.5 mphClear
11:54 AM-11.2 °F-18.4 °F70 %30.08 in10.0 miSSE (160°)11.5 mphScattered Clouds
12:14 PM-9.4 °F-16.6 °F71 %30.07 in10.0 miSSE (160°)11.5 mphOvercast
12:34 PM-9.4 °F-16.6 °F71 %30.07 in10.0 miSSE (160°)11.5 mphOvercast
12:54 PM-7.6 °F-14.8 °F71 %30.06 in10.0 miSouth (170°)11.5 mphOvercast
1:14 PM-7.6 °F-14.8 °F71 %30.06 in10.0 miSSE (160°)12.7 mphOvercast
1:34 PM-7.6 °F-14.8 °F71 %30.06 in10.0 miSSE (160°)12.7 mphOvercast
1:54 PM-7.6 °F-14.8 °F71 %30.05 in10.0 miSSE (160°)13.8 mphOvercast
2:14 PM-7.6 °F-13.0 °F77 %30.05 in10.0 miSSE (160°)13.8 mphOvercast
2:34 PM-7.6 °F-13.0 °F77 %30.05 in10.0 miSSE (160°)12.7 mphOvercast
2:54 PM-5.8 °F-11.2 °F77 %30.04 in10.0 miSSE (160°)11.5 mphOvercast
3:14 PM-5.8 °F-11.2 °F77 %30.05 in10.0 miSSE (160°)11.5 mphOvercast
3:34 PM-5.8 °F-11.2 °F77 %30.05 in5.0 miSSE (150°)10.4 mphHaze
3:54 PM-5.8 °F-11.2 °F77 %30.05 in5.0 miSSE (150°)9.2 mphHaze
4:14 PM-5.8 °F-11.2 °F77 %30.06 in7.0 miSouth (170°)8.1 mphOvercast
4:34 PM-5.8 °F-11.2 °F77 %30.06 in7.0 miSSE (160°)8.1 mphOvercast
4:54 PM-4.0 °F-11.2 °F71 %30.06 in5.0 miSouth (170°)6.9 mphHaze
5:14 PM-4.0 °F-9.4 °F78 %30.06 in4.0 miSSE (150°)6.9 mphSnowLight Snow
5:34 PM-4.0 °F-9.4 °F78 %30.06 in4.0 miSSE (160°)5.8 mphSnowLight Snow
5:54 PM-4.0 °F-9.4 °F78 %30.06 in10.0 miSouth (170°)5.8 mphOvercast
6:14 PM-4.0 °F-9.4 °F78 %30.07 in7.0 miSouth (170°)4.6 mphOvercast
6:34 PM-4.0 °F-9.4 °F78 %30.08 in7.0 miSSE (150°)4.6 mphSnowLight Snow
6:54 PM-4.0 °F-9.4 °F78 %30.08 in7.0 miSSE (150°)3.5 mphOvercast
7:14 PM-4.0 °F-9.4 °F78 %30.09 in4.0 miCalmSnowLight Snow
7:34 PM-4.0 °F-9.4 °F78 %30.09 in2.0 miCalmSnowLight Snow
7:59 PM-4.0 °F-9.4 °F78 %30.09 in4.0 miCalmSnowLight Snow
8:14 PM-5.8 °F-9.4 °F84 %30.09 in5.0 miCalmSnowLight Snow
8:34 PM-7.6 °F-11.2 °F84 %30.10 in10.0 miCalmSnowLight Snow
8:54 PM-7.6 °F-11.2 °F84 %30.10 in10.0 miCalmSnowLight Snow
9:14 PM-9.4 °F-14.8 °F77 %30.11 in10.0 miCalmSnowLight Snow
9:34 PM-9.4 °F-14.8 °F77 %30.11 in10.0 miCalmScattered Clouds
9:54 PM-11.2 °F-14.8 °F84 %30.12 in10.0 miCalmClear
10:14 PM-11.2 °F-14.8 °F84 %30.12 in10.0 miCalmClear
10:34 PM-11.2 °F-16.6 °F77 %30.13 in10.0 miCalmClear
10:54 PM-13.0 °F-16.6 °F84 %30.13 in10.0 miNNE (20°)3.5 mphClear
11:14 PM-11.2 °F-16.6 °F77 %30.14 in10.0 miNNE (20°)3.5 mphClear
11:34 PM-11.2 °F-16.6 °F77 %30.14 in10.0 miNNE (20°)3.5 mphClear
11:54 PM-13.0 °F-16.6 °F84 %30.14 in10.0 miCalmClear
Hourly data recorded from KHCO, located miles away from Lake Bronson, Minnesota







STORIES FROM OUR PARTNERS